Tracking 35275 objects as of 9-Sep-2026
HD Live streaming from Space Station
objects crossing your sky now

SMM DEB


SMM DEB is no longer on orbit


NORAD ID: 20325
Int'l Code: 1980-014C
Launch date: February 14, 1980
Source: United States (US)
Launch site: AIR FORCE EASTERN TEST RANGE (AFETR)
Decay date: 1989-11-23

Note: This is SATELLITE DEBRIS
Your satellite tracking list
Your tracking list is empty




NASA's NSSDC Master Catalog

Two Line Element Set (TLE):
1 20325U 80014  C 89326.97510664  .34964442 +38295-4 +45778-2 0  9991
2 20325 028.4826 212.1873 0009955 155.1186 205.2890 16.44205329544794
Source of the keplerian elements: AFSPC